Погода в Битове

Чехия     49°47′59″N   18°02′53″E
темп.,
°C
ветер,
м/с
пор.,
м/с
влажн.,
%
обл.,
%
осадки,
мм/ч
давл.,
гПа
погр.,
м
18 апреля, вс
вс1823:00+3св1498100 0.0 1021347
02:00+3ссв2499100 0.0 1020309
05:00+3ссв2499100 0.1 1020545
08:00+3ссв2598100 0.1 1019572
11:00+4св3591100 0.0 1019674
14:00+6св3586100 0.1 1019616
17:00+7св4580100 0.1 1019717
20:00+5ссв3687100 0.1 1019189
19 апреля, пн
пн1923:00+4с2493100 0.0 102094
02:00+4с2495100 0.0 101996
05:00+4с2494100 0.0 1018117
08:00+6с3689100 0.0 1018328
11:00+9ссв5680100 0.0 1017826
14:00+9св5677100 0.3 1016971
17:00+9ссв4681100 0.2 1015604
20:00+7всв2696100 0.9 1015282
20 апреля, вт
вт2023:00+7ссв259676 0.9 1015234
02:00+6ссв2599100 1.3 1015199
05:00+6с369798 0.4 1014270
08:00+6с3693100 0.4 1015345
11:00+8ссв358581 0.1 1015648
14:00+9ссв557876 0.4 1015862
17:00+10с347380 0.1 1014943
20:00+8с228291 0.2 101517
21 апреля, ср
ср2123:00+7сз1179100 0.0 101518
02:00+7з1177100 0.1 101510
05:00+5юз22853 0.0 101517
08:00+7юз34777 0.0 1015211
11:00+12зюз456244 0.4 1015995
14:00+14з575745 1.6 10141674
17:00+13зсз246168 1.9 1014908
20:00+9ссз127337 2.8 101511
22 апреля, чт
чт2223:00+6юз1184100 0.0 101610
02:00+5юз228778 0.0 101625
05:00+6з2385100 0.1 101776
08:00+7сз3588100 0.2 1018723
11:00+4вюв1387100 1.5 1020297
14:00+9з5745100 1.5 10191392
17:00+9з574997 0.0 10191805
20:00+5сз2265100 0.0 102121